Data for 12/29/2017

Time Sea-Level Adjusted Pressure Absolute Pressure Temperature Relative Humidity Dew Point   
(mb) (inHg) (mb) (inHg) (C) (F) (%) (C) (F)
00:05 1013 29.91 842 24.86 4.1 39.5 58 -3.4 25.8
00:10 1013 29.91 842 24.86 4.5 40.1 54 -3.9 25
00:15 1013 29.91 842 24.86 4.8 40.6 54 -3.7 25.3
00:20 1013 29.91 842 24.86 4.8 40.6 56 -3.4 25.9
00:25 1013 29.91 842 24.86 4.5 40.2 57 -3.3 26
00:30 1013 29.91 842 24.86 4.5 40.2 56 -3.4 25.9
00:35 1013 29.91 842 24.86 4.5 40.2 56 -3.5 25.7
00:40 1013 29.91 842 24.86 4.9 40.7 53 -4 24.8
00:45 1013 29.91 842 24.86 5.3 41.5 52 -3.8 25.1
00:50 1013 29.91 842 24.86 5.3 41.6 51 -3.9 24.9
00:55 1013 29.91 842 24.86 5.2 41.4 52 -3.7 25.3
01:00 1013 29.91 842 24.86 5.3 41.5 52 -3.7 25.4
01:05 1013 29.91 842 24.86 5.2 41.3 53 -3.6 25.6
01:10 1013 29.91 842 24.86 5.2 41.4 52 -4 24.9
01:15 1013 29.91 843 24.89 5.3 41.6 52 -3.7 25.4
01:20 1013 29.91 843 24.89 5.3 41.5 53 -3.5 25.7
01:25 1013 29.91 843 24.89 5.2 41.3 54 -3.4 25.8
01:30 1013 29.91 843 24.89 5.1 41.2 53 -3.6 25.5
01:35 1013 29.91 843 24.89 5.1 41.2 55 -3.3 26.1
01:40 1013 29.91 843 24.89 5 41 56 -3 26.6
01:45 1013 29.91 843 24.89 4.7 40.5 58 -2.9 26.7
01:50 1014 29.94 843 24.89 4.6 40.3 57 -3.2 26.2
01:55 1013 29.91 843 24.89 4.7 40.4 58 -3 26.6
02:00 1013 29.91 843 24.89 4.7 40.5 57 -3 26.6
02:05 1013 29.91 843 24.89 4.6 40.3 57 -3.1 26.5
02:10 1014 29.94 843 24.89 4.7 40.5 55 -3.4 25.9
02:15 1014 29.94 843 24.89 5 41 55 -3.4 25.9
02:20 1014 29.94 843 24.89 5.2 41.3 53 -3.5 25.7
02:25 1014 29.94 843 24.89 5.4 41.8 52 -3.6 25.6
02:30 1014 29.94 843 24.89 5.4 41.8 55 -3 26.7
02:35 1014 29.94 843 24.89 5.1 41.2 56 -2.9 26.8
02:40 1014 29.94 843 24.89 4.6 40.4 60 -2.6 27.4
02:45 1014 29.94 843 24.89 4 39.2 62 -2.6 27.3
02:50 1014 29.94 843 24.89 3.7 38.7 63 -2.8 27
02:55 1014 29.94 843 24.89 3.8 38.9 61 -3.1 26.4
03:00 1014 29.94 843 24.89 4.1 39.4 60 -3 26.6
03:05 1014 29.94 843 24.89 4 39.2 61 -2.9 26.7
03:10 1014 29.94 843 24.89 3.8 38.8 62 -2.9 26.8
03:15 1014 29.94 843 24.89 3.6 38.4 63 -2.9 26.8
03:20 1014 29.94 843 24.89 3.4 38.1 64 -2.8 26.9
03:25 1014 29.94 843 24.89 3.2 37.8 65 -2.7 27.1
03:30 1014 29.94 843 24.89 3 37.5 67 -2.5 27.5
03:35 1014 29.94 843 24.89 2.7 36.9 69 -2.5 27.6
03:40 1014 29.94 844 24.92 2.3 36.2 70 -2.6 27.3
03:45 1014 29.94 844 24.92 1.9 35.4 72 -2.7 27.2
03:50 1014 29.94 844 24.92 1.5 34.7 73 -2.9 26.8
03:55 1014 29.94 844 24.92 1.3 34.4 73 -2.9 26.7
04:00 1014 29.94 844 24.92 1.2 34.2 74 -2.9 26.7
04:05 1015 29.97 844 24.92 1 33.8 74 -3 26.5
04:10 1015 29.97 844 24.92 0.7 33.3 75 -3.3 26.1
04:15 1015 29.97 844 24.92 0.3 32.6 75 -3.5 25.7
04:20 1015 29.97 844 24.92 0 32.1 75 -3.8 25.1
04:25 1015 29.97 844 24.92 -0.3 31.4 75 -4.2 24.4
04:30 1015 29.97 844 24.92 -0.7 30.7 76 -4.5 23.9
04:35 1015 29.97 844 24.92 -1.3 29.6 77 -4.9 23.2
04:40 1015 29.97 845 24.95 -1.8 28.8 76 -5.5 22.1
04:45 1016 30 845 24.95 -2.3 27.8 77 -5.8 21.5
04:50 1016 30 845 24.95 -2.7 27.2 78 -6 21.3
04:55 1016 30 845 24.95 -2.9 26.9 79 -6.1 21
05:00 1016 30 845 24.95 -3.1 26.5 79 -6.2 20.9
05:05 1016 30 845 24.95 -3.3 26.1 79 -6.5 20.3
05:10 1016 30 845 24.95 -3.7 25.3 79 -6.9 19.7
05:15 1016 30 845 24.95 -4 24.8 78 -7.2 19
05:20 1016 30 845 24.95 -4.4 24 79 -7.5 18.5
05:25 1016 30 846 24.98 -4.7 23.6 80 -7.7 18.1
05:30 1016 30 846 24.98 -5.1 22.8 78 -8.3 17
05:35 1017 30.03 846 24.98 -6 21.3 80 -8.8 16.2
05:40 1017 30.03 846 24.98 -6.5 20.4 81 -9.2 15.4
05:45 1017 30.03 846 24.98 -6.8 19.8 82 -9.3 15.3
05:50 1017 30.03 846 24.98 -6.9 19.5 82 -9.4 15
05:55 1017 30.03 846 24.98 -7 19.3 83 -9.5 14.9
06:00 1017 30.03 846 24.98 -7.1 19.2 83 -9.5 14.8
06:05 1017 30.03 846 24.98 -7.3 18.9 83 -9.8 14.4
06:10 1017 30.03 846 24.98 -7.5 18.6 83 -9.9 14.3
06:15 1017 30.03 846 24.98 -7.5 18.4 83 -9.9 14.1
06:20 1017 30.03 846 24.98 -7.5 18.6 83 -10 14.1
06:25 1017 30.03 846 24.98 -7.5 18.5 82 -10.1 13.8
06:30 1017 30.03 846 24.98 -7.6 18.3 82 -10.2 13.7
06:35 1017 30.03 846 24.98 -7.7 18.2 81 -10.4 13.3
06:40 1017 30.03 846 24.98 -8.2 17.2 77 -11.6 11.1
06:45 1017 30.03 847 25.01 -9.7 14.6 79 -12.7 9.2
06:50 1017 30.03 847 25.01 -10.5 13.2 79 -13.5 7.8
06:55 1017 30.03 847 25.01 -11.1 12 78 -14.2 6.5
07:00 1018 30.06 847 25.01 -11.6 11 77 -14.9 5.1
07:05 1018 30.06 847 25.01 -12.2 10.1 76 -15.5 4
07:10 1018 30.06 847 25.01 -12.6 9.2 76 -16 3.1
07:15 1018 30.06 847 25.01 -13.1 8.5 77 -16.3 2.7
07:20 1018 30.06 847 25.01 -13.2 8.2 77 -16.4 2.4
07:25 1018 30.06 847 25.01 -13.4 7.9 77 -16.5 2.2
07:30 1018 30.06 848 25.04 -13.4 7.9 78 -16.5 2.3
07:35 1018 30.06 848 25.04 -13.5 7.7 78 -16.6 2
07:40 1019 30.09 848 25.04 -13.7 7.4 79 -16.6 2
07:45 1019 30.09 848 25.04 -13.6 7.6 78 -16.5 2.2
07:50 1019 30.09 848 25.04 -13.7 7.4 78 -16.7 1.9
07:55 1019 30.09 848 25.04 -13.9 7.1 79 -16.8 1.8
08:00 1019 30.09 848 25.04 -14.1 6.5 78 -17.2 1.1
08:05 1019 30.09 848 25.04 -14.3 6.2 79 -17.3 0.9
08:10 1019 30.09 848 25.04 -14.5 5.9 79 -17.4 0.6
08:15 1019 30.09 848 25.04 -14.7 5.6 77 -17.8 -0.1
08:20 1019 30.09 848 25.04 -14.8 5.3 77 -18 -0.5
08:25 1019 30.09 848 25.04 -15 5.1 77 -18.2 -0.7
08:30 1019 30.09 848 25.04 -14.9 5.2 76 -18.3 -0.9
08:35 1019 30.09 848 25.04 -14.8 5.3 76 -18.2 -0.8
08:40 1019 30.09 848 25.04 -14.6 5.7 76 -18 -0.4
08:45 1019 30.09 848 25.04 -14.3 6.2 75 -17.9 -0.2
08:50 1019 30.09 849 25.07 -14.3 6.3 75 -17.9 -0.1
08:55 1019 30.09 849 25.07 -14.2 6.5 74 -17.8 0
09:00 1020 30.12 849 25.07 -14.2 6.5 74 -17.8 -0.1
09:05 1020 30.12 849 25.07 -14.3 6.2 74 -18 -0.3
09:10 1020 30.12 849 25.07 -14.4 6 75 -18 -0.3
09:15 1020 30.12 849 25.07 -14.3 6.2 73 -18.1 -0.6
09:20 1020 30.12 849 25.07 -14.3 6.2 74 -18.1 -0.5
09:25 1020 30.12 849 25.07 -14.4 6.1 73 -18.1 -0.6
09:30 1020 30.12 849 25.07 -14.7 5.5 74 -18.4 -1.1
09:35 1020 30.12 850 25.1 -15.1 4.9 74 -18.7 -1.6
09:40 1020 30.12 850 25.1 -15.2 4.7 75 -18.6 -1.5
09:45 1021 30.15 850 25.1 -15.3 4.5 75 -18.9 -1.9
09:50 1020 30.12 850 25.1 -15.4 4.3 76 -18.7 -1.6
09:55 1020 30.12 850 25.1 -15.2 4.6 75 -18.8 -1.8
10:00 1021 30.15 850 25.1 -15.2 4.6 73 -19 -2.2
10:05 1021 30.15 850 25.1 -15.2 4.7 74 -18.7 -1.7
10:10 1021 30.15 850 25.1 -15.2 4.7 73 -18.9 -2.1
10:15 1021 30.15 850 25.1 -15.1 4.8 75 -18.6 -1.4
10:20 1021 30.15 850 25.1 -14.7 5.6 74 -18.4 -1.1
10:25 1021 30.15 850 25.1 -14.7 5.6 73 -18.5 -1.3
10:30 1021 30.15 850 25.1 -14.7 5.6 74 -18.4 -1.1
10:35 1021 30.15 850 25.1 -14.7 5.5 73 -18.5 -1.3
10:40 1021 30.15 850 25.1 -14.9 5.2 72 -18.9 -2
10:45 1021 30.15 850 25.1 -15.2 4.6 72 -19.1 -2.4
10:50 1021 30.15 850 25.1 -15.2 4.6 73 -19 -2.3
10:55 1021 30.15 850 25.1 -15.2 4.6 72 -19.2 -2.6
11:00 1021 30.15 850 25.1 -15.3 4.4 72 -19.3 -2.8
11:05 1021 30.15 850 25.1 -15.4 4.3 72 -19.3 -2.8
11:10 1021 30.15 850 25.1 -15.5 4.1 73 -19.3 -2.8
11:15 1021 30.15 850 25.1 -15.6 3.8 72 -19.5 -3.2
11:20 1021 30.15 850 25.1 -15.7 3.8 72 -19.7 -3.4
11:25 1021 30.15 850 25.1 -15.7 3.8 71 -19.7 -3.5
11:30 1021 30.15 850 25.1 -15.6 4 71 -19.8 -3.6
11:35 1021 30.15 850 25.1 -15.5 4.2 69 -20 -3.9
11:40 1020 30.12 850 25.1 -15.6 4 72 -19.5 -3.1
11:45 1020 30.12 850 25.1 -15.5 4 69 -20 -4
11:50 1020 30.12 849 25.07 -15.9 3.4 70 -20.1 -4.2
11:55 1020 30.12 850 25.1 -15.8 3.5 70 -20.2 -4.4
12:00 1020 30.12 850 25.1 -16 3.3 70 -20.2 -4.4
12:05 1020 30.12 849 25.07 -15.8 3.6 70 -20 -4
12:10 1020 30.12 850 25.1 -15.6 3.8 70 -20 -4
12:15 1020 30.12 850 25.1 -15.6 4 69 -20.1 -4.2
12:20 1020 30.12 850 25.1 -15.6 4 68 -20.2 -4.4
12:25 1020 30.12 850 25.1 -15.6 3.9 67 -20.3 -4.6
12:30 1020 30.12 850 25.1 -15.5 4.1 68 -20.2 -4.4
12:35 1020 30.12 849 25.07 -15.6 3.8 68 -20.3 -4.6
12:40 1020 30.12 849 25.07 -15.9 3.4 68 -20.5 -4.9
12:45 1020 30.12 849 25.07 -15.8 3.6 67 -20.5 -4.9
12:50 1020 30.12 849 25.07 -15.7 3.7 67 -20.6 -5
12:55 1020 30.12 849 25.07 -16 3.2 68 -20.6 -5.1
13:00 1020 30.12 849 25.07 -16.1 3 69 -20.6 -5
13:05 1020 30.12 849 25.07 -16.1 3.1 69 -20.5 -5
13:10 1020 30.12 849 25.07 -16.1 3 70 -20.5 -4.8
13:15 1020 30.12 849 25.07 -16.2 2.8 70 -20.5 -4.9
13:20 1020 30.12 849 25.07 -16 3.3 67 -20.8 -5.4
13:25 1020 30.12 849 25.07 -15.8 3.5 66 -20.9 -5.5
13:30 1020 30.12 849 25.07 -16.1 3 67 -20.9 -5.7
13:35 1020 30.12 849 25.07 -16.1 3.1 67 -20.8 -5.4
13:40 1020 30.12 849 25.07 -15.9 3.4 67 -20.7 -5.3
13:45 1020 30.12 849 25.07 -15.9 3.5 66 -20.8 -5.4
13:50 1020 30.12 849 25.07 -15.7 3.7 66 -20.8 -5.4
13:55 1020 30.12 849 25.07 -15.8 3.6 66 -20.7 -5.3
14:00 1020 30.12 849 25.07 -15.7 3.8 65 -20.8 -5.5
14:05 1020 30.12 849 25.07 -15.7 3.7 65 -20.8 -5.5
14:10 1020 30.12 849 25.07 -15.9 3.5 66 -20.9 -5.7
14:15 1020 30.12 849 25.07 -16 3.2 64 -21.3 -6.3
14:20 1020 30.12 849 25.07 -16.2 2.8 66 -21.2 -6.1
14:25 1020 30.12 849 25.07 -16.1 3 66 -21.1 -5.9
14:30 1020 30.12 849 25.07 -15.9 3.3 65 -21 -5.8
14:35 1020 30.12 849 25.07 -15.9 3.5 66 -20.8 -5.5
14:40 1020 30.12 849 25.07 -16 3.3 66 -21 -5.7
14:45 1020 30.12 849 25.07 -16.2 2.9 67 -21 -5.8
14:50 1020 30.12 849 25.07 -16.2 2.8 65 -21.4 -6.5
14:55 1020 30.12 849 25.07 -16.5 2.2 67 -21.3 -6.4
15:00 1020 30.12 849 25.07 -16.8 1.8 64 -22 -7.7
15:05 1020 30.12 849 25.07 -17.2 1.1 66 -22.1 -7.9
15:10 1020 30.12 849 25.07 -17.1 1.2 65 -22.2 -7.9
15:15 1020 30.12 849 25.07 -17.3 0.9 67 -22.1 -7.8
15:20 1020 30.12 849 25.07 -17.3 0.9 66 -22.3 -8.1
15:25 1020 30.12 849 25.07 -17.4 0.7 67 -22.1 -7.8
15:30 1020 30.12 849 25.07 -17.4 0.6 67 -22.1 -7.8
15:35 1020 30.12 849 25.07 -17.3 0.8 67 -22 -7.7
15:40 1020 30.12 849 25.07 -17.2 1 68 -21.8 -7.2
15:45 1020 30.12 849 25.07 -16.9 1.6 66 -21.7 -7.1
15:50 1020 30.12 850 25.1 -16.9 1.6 68 -21.6 -6.8
15:55 1020 30.12 850 25.1 -17.1 1.2 69 -21.6 -6.8
16:00 1020 30.12 850 25.1 -17 1.3 67 -21.7 -7.1
16:05 1020 30.12 850 25.1 -17.2 1 68 -21.7 -7.1
16:10 1020 30.12 850 25.1 -17.3 0.9 68 -21.9 -7.4
16:15 1021 30.15 850 25.1 -17.4 0.6 68 -21.9 -7.5
16:20 1021 30.15 850 25.1 -17.5 0.5 69 -22 -7.5
16:25 1021 30.15 850 25.1 -17.5 0.4 69 -22 -7.6
16:30 1021 30.15 850 25.1 -17.6 0.4 68 -22.2 -7.9
16:35 1021 30.15 850 25.1 -17.6 0.3 69 -22.1 -7.7
16:40 1021 30.15 850 25.1 -17.7 0.1 69 -22 -7.6
16:45 1021 30.15 850 25.1 -17.7 0.2 70 -21.9 -7.3
16:50 1021 30.15 850 25.1 -17.7 0.1 71 -21.7 -7.1
16:55 1021 30.15 850 25.1 -17.7 0.1 72 -21.7 -7
17:00 1021 30.15 850 25.1 -17.8 -0 72 -21.6 -6.9
17:05 1021 30.15 850 25.1 -17.8 -0.1 72 -21.7 -7
17:10 1020 30.12 850 25.1 -18 -0.4 73 -21.8 -7.2
17:15 1020 30.12 850 25.1 -18 -0.4 73 -21.7 -7.1
17:20 1020 30.12 849 25.07 -18 -0.3 73 -21.8 -7.2
17:25 1020 30.12 849 25.07 -18 -0.4 73 -21.7 -7.1
17:30 1020 30.12 849 25.07 -17.9 -0.2 73 -21.7 -7.1
17:35 1020 30.12 849 25.07 -17.9 -0.2 72 -21.8 -7.2
17:40 1020 30.12 849 25.07 -17.9 -0.3 71 -22 -7.6
17:45 1020 30.12 849 25.07 -18 -0.4 72 -21.9 -7.5
17:50 1020 30.12 849 25.07 -18.1 -0.5 71 -22.1 -7.8
17:55 1020 30.12 849 25.07 -18.2 -0.7 71 -22.2 -7.9
18:00 1020 30.12 849 25.07 -18.2 -0.8 72 -22 -7.6
18:05 1020 30.12 849 25.07 -18.2 -0.7 73 -21.8 -7.3
18:10 1020 30.12 849 25.07 -18.2 -0.7 73 -21.9 -7.3
18:15 1020 30.12 849 25.07 -18.1 -0.5 73 -21.9 -7.3
18:20 1020 30.12 849 25.07 -18 -0.4 73 -21.7 -7.1
18:25 1020 30.12 849 25.07 -18 -0.5 72 -21.9 -7.4
18:30 1020 30.12 849 25.07 -18.1 -0.5 72 -21.9 -7.5
18:35 1020 30.12 849 25.07 -18.1 -0.5 72 -21.9 -7.5
18:40 1020 30.12 849 25.07 -18 -0.4 71 -22.1 -7.8
18:45 1020 30.12 849 25.07 -17.9 -0.3 69 -22.3 -8.1
18:50 1020 30.12 849 25.07 -18.1 -0.5 68 -22.6 -8.6
18:55 1020 30.12 849 25.07 -18.1 -0.7 68 -22.8 -9
19:00 1020 30.12 849 25.07 -18.2 -0.8 69 -22.6 -8.6
19:05 1020 30.12 849 25.07 -18.2 -0.8 68 -22.7 -8.9
19:10 1020 30.12 849 25.07 -18.3 -0.9 69 -22.7 -8.9
19:15 1020 30.12 849 25.07 -18.3 -1 68 -22.8 -9.1
19:20 1020 30.12 849 25.07 -18.4 -1.1 67 -23.2 -9.7
19:25 1020 30.12 849 25.07 -18.6 -1.5 68 -23.2 -9.8
19:30 1020 30.12 849 25.07 -18.5 -1.3 69 -22.9 -9.2
19:35 1020 30.12 849 25.07 -18.5 -1.3 68 -23.1 -9.6
19:40 1020 30.12 849 25.07 -18.8 -1.8 69 -23.2 -9.7
19:45 1020 30.12 849 25.07 -18.6 -1.5 70 -22.8 -9.1
19:50 1020 30.12 849 25.07 -18.4 -1 67 -23.1 -9.6
19:55 1020 30.12 849 25.07 -18.6 -1.5 69 -23.1 -9.5
20:00 1020 30.12 849 25.07 -18.6 -1.6 68 -23.1 -9.6
20:05 1020 30.12 849 25.07 -18.6 -1.5 70 -22.9 -9.1
20:10 1020 30.12 849 25.07 -18.6 -1.5 69 -23 -9.4
20:15 1020 30.12 849 25.07 -18.6 -1.5 68 -23.1 -9.5
20:20 1020 30.12 849 25.07 -18.6 -1.5 68 -23.2 -9.7
20:25 1020 30.12 849 25.07 -18.6 -1.5 68 -23.2 -9.8
20:30 1019 30.09 848 25.04 -18.7 -1.7 68 -23.3 -9.9
20:35 1019 30.09 848 25.04 -18.9 -1.9 68 -23.4 -10.1
20:40 1019 30.09 848 25.04 -18.9 -1.9 69 -23.2 -9.8
20:45 1019 30.09 848 25.04 -18.8 -1.8 69 -23.2 -9.7
20:50 1019 30.09 848 25.04 -18.9 -2 69 -23.2 -9.7
20:55 1019 30.09 848 25.04 -18.9 -1.9 69 -23.2 -9.7
21:00 1019 30.09 848 25.04 -18.7 -1.7 70 -23 -9.4
21:05 1019 30.09 848 25.04 -18.8 -1.9 71 -22.8 -9
21:10 1019 30.09 848 25.04 -18.8 -1.8 69 -23.1 -9.5
21:15 1019 30.09 848 25.04 -18.5 -1.3 68 -23 -9.4
21:20 1019 30.09 848 25.04 -18.6 -1.4 70 -22.8 -9
21:25 1019 30.09 848 25.04 -18.6 -1.4 69 -22.9 -9.1
21:30 1019 30.09 848 25.04 -18.6 -1.4 70 -22.7 -8.9
21:35 1019 30.09 848 25.04 -18.6 -1.5 70 -22.8 -9
21:40 1019 30.09 848 25.04 -18.6 -1.5 70 -22.8 -9.1
21:45 1019 30.09 848 25.04 -18.7 -1.7 71 -22.7 -8.8
21:50 1019 30.09 848 25.04 -18.7 -1.7 72 -22.6 -8.7
21:55 1019 30.09 848 25.04 -18.5 -1.3 72 -22.4 -8.4
22:00 1019 30.09 848 25.04 -18.4 -1.2 71 -22.5 -8.5
22:05 1019 30.09 848 25.04 -18.4 -1 70 -22.6 -8.6
22:10 1019 30.09 848 25.04 -18.6 -1.4 71 -22.6 -8.7
22:15 1019 30.09 848 25.04 -18.7 -1.7 72 -22.5 -8.5
22:20 1019 30.09 848 25.04 -18.6 -1.5 72 -22.5 -8.6
22:25 1019 30.09 848 25.04 -18.6 -1.5 73 -22.4 -8.3
22:30 1019 30.09 848 25.04 -18.8 -1.8 72 -22.7 -8.8
22:35 1019 30.09 848 25.04 -19 -2.1 71 -23.1 -9.5
22:40 1019 30.09 848 25.04 -19.1 -2.4 70 -23.2 -9.8
22:45 1019 30.09 848 25.04 -19.1 -2.5 71 -23.2 -9.8
22:50 1019 30.09 848 25.04 -19.2 -2.5 70 -23.4 -10.1
22:55 1019 30.09 848 25.04 -19.2 -2.5 71 -23.3 -9.9
23:00 1019 30.09 848 25.04 -19.3 -2.7 70 -23.5 -10.2
23:05 1019 30.09 848 25.04 -19.4 -2.9 71 -23.5 -10.2
23:10 1019 30.09 848 25.04 -19.4 -2.9 72 -23.2 -9.8
23:15 1019 30.09 848 25.04 -19.3 -2.7 73 -23 -9.5
23:20 1019 30.09 848 25.04 -19.2 -2.5 72 -23.1 -9.6
23:25 1019 30.09 848 25.04 -19.3 -2.8 74 -22.9 -9.2
23:30 1019 30.09 848 25.04 -19.3 -2.8 74 -22.9 -9.2
23:35 1019 30.09 848 25.04 -19.3 -2.7 72 -23.1 -9.6
23:40 1019 30.09 848 25.04 -19.2 -2.6 73 -23 -9.3
23:45 1018 30.06 848 25.04 -19.3 -2.7 72 -23.2 -9.8
23:50 1018 30.06 848 25.04 -19.4 -2.8 72 -23.3 -9.9
23:55 1018 30.06 847 25.01 -19.3 -2.7 73 -22.9 -9.3
24:00 1018 30.06 847 25.01 -19.1 -2.3 72 -22.9 -9.2